H1 CPF 2 NER 2022 2 17 9 048 01 glonass116 H2 0907001 9116 36111 2022 2 17 0 0 0 2022 2 20 23 45 0 900 1 1 0 0 0 1 H9 10 0 59627 0.00000 0 12224136.551 6241448.230 21500996.761 10 0 59627 900.00000 0 9726984.043 7292964.871 22425932.515 10 0 59627 1800.00000 0 7235077.753 8561962.718 22915419.675 10 0 59627 2700.00000 0 4813163.196 10024303.969 22960008.084 10 0 59627 3600.00000 0 2521010.060 11644743.646 22558878.718 10 0 59627 4500.00000 0 411138.283 13378265.693 21719855.808 10 0 59627 5400.00000 0 -1473142.004 15171844.599 20459252.753 10 0 59627 6300.00000 0 -3099296.441 16966559.634 18801554.857 10 0 59627 7200.00000 0 -4446674.429 18699973.971 16778944.948 10 0 59627 8100.00000 0 -5507114.391 20308679.907 14430680.765 10 0 59627 9000.00000 0 -6285022.413 21730904.327 11802335.709 10 0 59627 9900.00000 0 -6796922.179 22909065.692 8944917.275 10 0 59627 10800.00000 0 -7070496.298 23792175.793 5913879.834 10 0 59627 11700.00000 0 -7143160.267 24337985.598 2768050.527 10 0 59627 12600.00000 0 -7060229.947 24514785.087 -431510.966 10 0 59627 13500.00000 0 -6872760.558 24302781.263 -3622696.730 10 0 59627 14400.00000 0 -6635149.023 23694996.090 -6743555.937 10 0 59627 15300.00000 0 -6402601.478 22697646.182 -9733497.499 10 0 59627 16200.00000 0 -6228573.492 21329987.763 -12534466.542 10 0 59627 17100.00000 0 -6162291.661 19623632.825 -15092071.696 10 0 59627 18000.00000 0 -6246461.772 17621364.600 -17356641.092 10 0 59627 18900.00000 0 -6515260.857 15375501.334 -19284186.644 10 0 59627 19800.00000 0 -6992698.447 12945876.163 -20837257.983 10 0 59627 20700.00000 0 -7691416.761 10397516.938 -21985669.614 10 0 59627 21600.00000 0 -8611981.164 7798122.097 -22707087.451 10 0 59627 22500.00000 0 -9742691.632 5215437.125 -22987463.589 10 0 59627 23400.00000 0 -11059924.120 2714640.189 -22821310.982 10 0 59627 24300.00000 0 -12528988.616 355845.026 -22211812.770 10 0 59627 25200.00000 0 -14105468.937 -1808175.787 -21170763.975 10 0 59627 26100.00000 0 -15736989.160 -3733953.097 -19718346.421 10 0 59627 27000.00000 0 -17365333.511 -5388888.082 -17882740.820 10 0 59627 27900.00000 0 -18928831.624 -6752359.273 -15699583.001 10 0 59627 28800.00000 0 -20364909.546 -7816324.268 -13211274.374 10 0 59627 29700.00000 0 -21612699.686 -8585391.895 -10466159.522 10 0 59627 30600.00000 0 -22615600.056 -9076362.773 -7517586.584 10 0 59627 31500.00000 0 -23323674.900 -9317258.546 -4422868.652 10 0 59627 32400.00000 0 -23695795.322 -9345881.762 -1242166.479 10 0 59627 33300.00000 0 -23701429.216 -9207968.240 1962685.435 10 0 59627 34200.00000 0 -23322004.520 -8955011.041 5129385.901 10 0 59627 35100.00000 0 -22551787.846 -8641849.164 8196383.126 10 0 59627 36000.00000 0 -21398240.986 -8324124.015 11104075.510 10 0 59627 36900.00000 0 -19881839.981 -8055712.183 13795973.086 10 0 59627 37800.00000 0 -18035364.099 -7886243.954 16219796.614 10 0 59627 38700.00000 0 -15902684.395 -7858813.095 18328492.783 10 0 59627 39600.00000 0 -13537102.577 -8007975.128 20081145.753 10 0 59627 40500.00000 0 -10999309.537 -8358118.881 21443767.690 10 0 59627 41400.00000 0 -8355048.576 -8922280.170 22389953.490 10 0 59627 42300.00000 0 -5672580.506 -9701447.685 22901387.582 10 0 59627 43200.00000 0 -3020055.612 -10684390.420 22968193.750 10 0 59627 44100.00000 0 -462901.044 -11848014.139 22589121.818 10 0 59627 45000.00000 0 1938668.622 -13158232.180 21771568.102 10 0 59627 45900.00000 0 4131915.365 -14571314.547 20531429.575 10 0 59627 46800.00000 0 6073523.408 -16035659.243 18892794.632 10 0 59627 47700.00000 0 7731146.933 -17493912.191 16887476.368 10 0 59627 48600.00000 0 9084496.831 -18885347.480 14554397.091 10 0 59627 49500.00000 0 10125922.490 -20148408.694 11938835.561 10 0 59627 50400.00000 0 10860465.592 -21223305.119 9091551.146 10 0 59627 51300.00000 0 11305384.882 -22054554.146 6067801.430 10 0 59627 52200.00000 0 11489172.953 -22593363.184 2926271.971 10 0 59627 53100.00000 0 11450107.264 -22799750.852 -272061.128 10 0 59627 54000.00000 0 11234397.250 -22644317.987 -3465113.866 10 0 59627 54900.00000 0 10894006.320 -22109593.530 -6590899.155 10 0 59627 55800.00000 0 10484241.220 -21190898.095 -9588730.186 10 0 59627 56700.00000 0 10061211.072 -19896688.210 -12400398.762 10 0 59627 57600.00000 0 9679263.835 -18248365.985 -14971305.586 10 0 59627 58500.00000 0 9388508.836 -16279561.396 -17251520.340 10 0 59627 59400.00000 0 9232530.327 -14034916.405 -19196751.008 10 0 59627 60300.00000 0 9246388.922 -11568420.889 -20769203.735 10 0 59627 61200.00000 0 9454995.542 -8941369.132 -21938316.663 10 0 59627 62100.00000 0 9871926.863 -6220021.251 -22681353.769 10 0 59627 63000.00000 0 10498732.654 -3473066.105 -22983847.428 10 0 59627 63900.00000 0 11324764.796 -768990.565 -22839881.220 10 0 59627 64800.00000 0 12327535.892 1826536.316 -22252207.564 10 0 59627 65700.00000 0 13473593.229 4253156.266 -21232197.754 10 0 59627 66600.00000 0 14719872.179 6458088.909 -19799625.075 10 0 59627 67500.00000 0 16015472.961 8398079.515 -17982284.806 10 0 59627 68400.00000 0 17303786.819 10040947.004 -15815457.918 10 0 59627 69300.00000 0 18524882.667 11366668.361 -13341228.426 10 0 59627 70200.00000 0 19618054.130 12367954.987 -10607667.173 10 0 59627 71100.00000 0 20524419.789 13050297.749 -7667897.555 10 0 59627 72000.00000 0 21189466.869 13431479.736 -4579061.337 10 0 59627 72900.00000 0 21565430.740 13540578.245 -1401204.752 10 0 59627 73800.00000 0 21613409.318 13416499.111 1803893.135 10 0 59627 74700.00000 0 21305122.482 13106106.287 4973926.347 10 0 59627 75600.00000 0 20624241.615 12662026.781 8047278.162 10 0 59627 76500.00000 0 19567232.534 12140224.787 10964223.162 10 0 59627 77400.00000 0 18143675.715 11597448.492 13668091.128 10 0 59627 78300.00000 0 16376049.838 11088658.344 16106369.705 10 0 59627 79200.00000 0 14298987.302 10664546.050 18231724.211 10 0 59627 80100.00000 0 11958032.610 10369249.494 20002914.730 10 0 59627 81000.00000 0 9407955.289 10238360.221 21385593.023 10 0 59627 81900.00000 0 6710687.382 10297307.462 22352964.291 10 0 59627 82800.00000 0 3932971.193 10560186.699 22886301.572 10 0 59627 83700.00000 0 1143814.611 11029081.843 22975303.522 10 0 59627 84600.00000 0 -1588140.935 11693909.433 22618289.313 10 0 59627 85500.00000 0 -4197231.320 12532791.279 21822227.379 10 0 59628 0.00000 0 -6623251.832 13512939.904 20602597.938 10 0 59628 900.00000 0 -8813709.877 14592020.327 18983091.312 10 0 59628 1800.00000 0 -10725752.644 15719930.011 16995149.546 10 0 59628 2700.00000 0 -12327695.190 16840924.343 14677357.698 10 0 59628 3600.00000 0 -13600083.278 17895997.536 12074697.727 10 0 59628 4500.00000 0 -14536249.119 18825419.707 9237678.442 10 0 59628 5400.00000 0 -15142337.774 19571323.657 6221358.010 10 0 59628 6300.00000 0 -15436804.144 20080232.579 3084277.632 10 0 59628 7200.00000 0 -15449402.579 20305422.208 -112673.056 10 0 59628 8100.00000 0 -15219712.447 20209017.653 -3307436.925 10 0 59628 9000.00000 0 -14795262.445 19763736.106 -6437993.641 10 0 59628 9900.00000 0 -14229333.281 18954201.410 -9443563.661 10 0 59628 10800.00000 0 -13578531.956 17777774.361 -12265788.394 10 0 59628 11700.00000 0 -12900240.374 16244862.900 -14849863.424 10 0 59628 12600.00000 0 -12250046.257 14378698.214 -17145602.591 10 0 59628 13500.00000 0 -11679265.010 12214585.044 -19108412.319 10 0 59628 14400.00000 0 -11232657.205 9798656.535 -20700157.345 10 0 59628 15300.00000 0 -10946438.047 7186184.601 -21889901.214 10 0 59628 16200.00000 0 -10846662.832 4439515.275 -22654507.392 10 0 59628 17100.00000 0 -10948056.545 1625713.989 -22979089.591 10 0 59628 18000.00000 0 -11253337.122 -1185982.093 -22857302.677 10 0 59628 18900.00000 0 -11753061.161 -3926799.710 -22291468.581 10 0 59628 19800.00000 0 -12425999.022 -6531044.442 -21292534.650 10 0 59628 20700.00000 0 -13240024.017 -8938586.952 -19879864.952 10 0 59628 21600.00000 0 -14153478.791 -11097117.944 -18080868.192 10 0 59628 22500.00000 0 -15116961.899 -12964078.653 -15930468.927 10 0 59628 23400.00000 0 -16075459.705 -14508187.024 -13470431.864 10 0 59628 24300.00000 0 -16970734.014 -15710496.586 -10748551.877 10 0 59628 25200.00000 0 -17743864.811 -16564944.447 -7817725.173 10 0 59628 26100.00000 0 -18337840.589 -17078366.204 -4734919.569 10 0 59628 27000.00000 0 -18700086.535 -17269978.019 -1560064.032 10 0 59628 27900.00000 0 -18784823.189 -17170348.616 1645120.638 10 0 59628 28800.00000 0 -18555155.233 -16819905.485 4818326.587 10 0 59628 29700.00000 0 -17984801.407 -16267039.390 7897875.105 10 0 59628 30600.00000 0 -17059391.710 -15565888.208 10823919.916 10 0 59628 31500.00000 0 -15777276.432 -14773894.659 13539613.443 10 0 59628 32400.00000 0 -14149812.231 -13949241.909 15992212.978 10 0 59628 33300.00000 0 -12201112.579 -13148275.928 18134105.025 10 0 59628 34200.00000 0 -9967272.516 -12423023.791 19923727.862 10 0 59628 35100.00000 0 -7495099.657 -11818912.687 21326374.759 10 0 59628 36000.00000 0 -4840403.932 -11372785.662 22314862.747 10 0 59628 36900.00000 0 -2065916.911 -11111297.314 22870054.581 10 0 59628 37800.00000 0 761073.295 -11049756.505 22981224.501 10 0 59628 38700.00000 0 3571273.988 -11191464.250 22646261.362 10 0 59628 39600.00000 0 6296021.429 -11527574.162 21871705.703 10 0 59628 40500.00000 0 8869887.666 -12037480.929 20672620.414 10 0 59628 41400.00000 0 11233153.467 -12689720.318 19072297.580 10 0 59628 42300.00000 0 13334045.679 -13443342.791 17101807.116 10 0 59628 43200.00000 0 15130647.217 -14249703.083 14799395.644 10 0 59628 44100.00000 0 16592401.289 -15054590.627 12209746.814 10 0 59628 45000.00000 0 17701148.197 -15800611.369 9383117.027 10 0 59628 45900.00000 0 18451652.478 -16429720.842 6374362.837 10 0 59628 46800.00000 0 18851599.297 -16885801.807 3241878.566 10 0 59628 47700.00000 0 18921061.041 -17117177.726 46464.586 10 0 59628 48600.00000 0 18691457.356 -17078955.821 -3149851.833 10 0 59628 49500.00000 0 18204052.965 -16735100.418 -6285020.205 10 0 59628 50400.00000 0 17508057.103 -16060148.553 -9298171.388 10 0 59628 51300.00000 0 16658405.089 -15040494.718 -12130799.472 10 0 59628 52200.00000 0 15713315.880 -13675189.645 -14727897.886 10 0 59628 53100.00000 0 14731728.844 -11976218.519 -17039027.436 10 0 59628 54000.00000 0 13770727.901 -9968245.711 -19019295.570 10 0 59628 54900.00000 0 12883061.621 -7687835.471 -20630227.958 10 0 59628 55800.00000 0 12114863.691 -5182179.991 -21840515.567 10 0 59628 56700.00000 0 11503669.603 -2507386.664 -22626623.016 10 0 59628 57600.00000 0 11076812.912 273605.272 -22973246.631 10 0 59628 58500.00000 0 10850268.421 3093393.042 -22873613.423 10 0 59628 59400.00000 0 10827990.897 5882666.150 -22329615.280 10 0 59628 60300.00000 0 11001777.141 8572844.466 -21351775.630 10 0 59628 61200.00000 0 11351657.337 11098689.649 -19959048.943 10 0 59628 62100.00000 0 11846799.335 13400782.104 -18178456.593 10 0 59628 63000.00000 0 12446887.994 15427761.059 -16044565.564 10 0 59628 63900.00000 0 13103921.583 17138234.880 -13598819.702 10 0 59628 64800.00000 0 13764349.570 18502282.521 -10888735.992 10 0 59628 65700.00000 0 14371461.479 19502483.863 -7966981.140 10 0 59628 66600.00000 0 14867925.663 20134436.323 -4890346.373 10 0 59628 67500.00000 0 15198370.284 20406736.768 -1718640.454 10 0 59628 68400.00000 0 15311896.745 20340430.225 1486477.225 10 0 59628 69300.00000 0 15164418.572 19967949.431 4662700.190 10 0 59628 70200.00000 0 14720725.997 19331590.830 7748291.006 10 0 59628 71100.00000 0 13956188.118 18481592.213 10683285.720 10 0 59628 72000.00000 0 12858019.909 17473894.012 13410662.438 10 0 59628 72900.00000 0 11426059.808 16367679.493 15877450.936 10 0 59628 73800.00000 0 9673024.327 15222798.208 18035761.498 10 0 59628 74700.00000 0 7624228.325 14097181.745 19843712.932 10 0 59628 75600.00000 0 5316781.931 13044360.743 21266242.067 10 0 59628 76500.00000 0 2798297.049 12111187.526 22275779.503 10 0 59628 77400.00000 0 125156.814 11335859.757 22852779.106 10 0 59628 78300.00000 0 -2639580.592 10746327.526 22986091.708 10 0 59628 79200.00000 0 -5428557.395 10359150.054 22673176.425 10 0 59628 80100.00000 0 -8172672.954 10178849.233 21920146.015 10 0 59628 81000.00000 0 -10803716.550 10197786.369 20741645.783 10 0 59628 81900.00000 0 -13256967.922 10396566.669 19160568.470 10 0 59628 82800.00000 0 -15473658.445 10744953.982 17207610.589 10 0 59628 83700.00000 0 -17403191.703 11203257.007 14920678.519 10 0 59628 84600.00000 0 -19005032.075 11724128.448 12344155.431 10 0 59628 85500.00000 0 -20250183.462 12254701.322 9528042.861 10 0 59629 0.00000 0 -21122197.323 12738972.289 6526993.378 10 0 59629 900.00000 0 -21617669.023 13120331.713 3399251.100 10 0 59629 1800.00000 0 -21746201.308 13344132.924 205524.554 10 0 59629 2700.00000 0 -21529838.652 13360192.815 -2992191.759 10 0 59629 3600.00000 0 -21001995.508 13125117.127 -6131820.121 10 0 59629 4500.00000 0 -20205924.529 12604351.921 -9152404.702 10 0 59629 5400.00000 0 -19192789.519 11773873.881 -11995295.147 10 0 59629 6300.00000 0 -18019424.508 10621447.214 -14605285.510 10 0 59629 7200.00000 0 -16745873.509 9147393.179 -16931686.175 10 0 59629 8100.00000 0 -15432814.570 7364838.645 -18929308.007 10 0 59629 9000.00000 0 -14138976.486 5299431.914 -20559339.690 10 0 59629 9900.00000 0 -12918656.667 2988536.395 -21790101.358 10 0 59629 10800.00000 0 -11819444.254 479934.419 -22597660.138 10 0 59629 11700.00000 0 -10880243.824 -2169906.096 -22966295.912 10 0 59629 12600.00000 0 -10129682.369 -4897931.117 -22888808.360 10 0 59629 13500.00000 0 -9584966.096 -7636879.934 -22366659.419 10 0 59629 14400.00000 0 -9251234.728 -10317846.674 -21409948.255 10 0 59629 15300.00000 0 -9121440.190 -12872918.195 -20037218.987 10 0 59629 16200.00000 0 -9176754.562 -15237779.430 -18275104.492 10 0 59629 17100.00000 0 -9387489.914 -17354178.352 -16157812.676 10 0 59629 18000.00000 0 -9714491.168 -19172148.267 -13726464.712 10 0 59629 18900.00000 0 -10110943.009 -20651895.123 -11028297.644 10 0 59629 19800.00000 0 -10524514.330 -21765271.326 -8115746.452 10 0 59629 20700.00000 0 -10899749.216 -22496774.647 -5045423.424 10 0 59629 21600.00000 0 -11180602.863 -22844030.790 -1877014.693 10 0 59629 22500.00000 0 -11313014.457 -22817739.834 1327884.261 10 0 59629 23400.00000 0 -11247407.392 -22441089.373 4506970.891 10 0 59629 24300.00000 0 -10941010.122 -21748659.802 7598451.660 10 0 59629 25200.00000 0 -10359898.570 -20784868.627 10542247.585 10 0 59629 26100.00000 0 -9480672.855 -19602020.137 13281165.107 10 0 59629 27000.00000 0 -8291696.657 -18258043.402 15762009.084 10 0 59629 27900.00000 0 -6793846.070 -16814014.454 17936616.061 10 0 59629 28800.00000 0 -5000735.696 -15331567.417 19762787.661 10 0 59629 29700.00000 0 -2938411.658 -13870303.615 21205106.296 10 0 59629 30600.00000 0 -644523.608 -12485307.412 22235617.846 10 0 59629 31500.00000 0 1832990.350 -11224872.714 22834368.653 10 0 59629 32400.00000 0 4437651.776 -10128534.807 22989787.149 10 0 59629 33300.00000 0 7106551.073 -9225489.183 22698903.361 10 0 59629 34200.00000 0 9772730.773 -8533462.674 21967402.581 10 0 59629 35100.00000 0 12367744.813 -8058083.117 20809512.524 10 0 59629 36000.00000 0 14824288.364 -7792773.018 19247726.273 10 0 59629 36900.00000 0 17078789.813 -7719170.747 17312366.316 10 0 59629 37800.00000 0 19073858.018 -7808060.850 15040997.850 10 0 59629 38700.00000 0 20760483.856 -8020773.760 12477702.289 10 0 59629 39600.00000 0 22099905.001 -8310995.603 9672224.658 10 0 59629 40500.00000 0 23065056.856 -8626911.504 6679010.961 10 0 59629 41400.00000 0 23641549.576 -8913591.758 3556153.804 10 0 59629 42300.00000 0 23828130.762 -9115519.899 364266.601 10 0 59629 43200.00000 0 23636614.915 -9179155.571 -2834691.894 10 0 59629 44100.00000 0 23091282.941 -9055423.520 -5978619.887 10 0 59629 45000.00000 0 22227777.275 -8702023.008 -9006478.069 10 0 59629 45900.00000 0 21091539.288 -8085459.412 -11859474.811 10 0 59629 46800.00000 0 19735854.860 -7182711.414 -14482207.839 10 0 59629 47700.00000 0 18219590.375 -5982462.466 -16823739.986 10 0 59629 48600.00000 0 16604714.330 -4485843.554 -18838588.179 10 0 59629 49500.00000 0 14953708.514 -2706654.679 -20487606.518 10 0 59629 50400.00000 0 13326977.314 -671054.455 -21738746.424 10 0 59629 51300.00000 0 11780363.466 1583270.669 -22567679.351 10 0 59629 52200.00000 0 10362874.047 4008424.308 -22958270.218 10 0 59629 53100.00000 0 9114711.560 6548051.492 -22902892.481 10 0 59629 54000.00000 0 8065692.077 9139451.831 -22402578.834 10 0 59629 54900.00000 0 7234116.203 11715967.674 -21467004.482 10 0 59629 55800.00000 0 6626139.678 14209548.777 -20114303.069 10 0 59629 56700.00000 0 6235669.492 16553387.569 -18370718.428 10 0 59629 57600.00000 0 6044789.364 18684515.849 -16270098.404 10 0 59629 58500.00000 0 6024696.234 20546255.043 -13853240.099 10 0 59629 59400.00000 0 6137107.808 22090418.044 -11167098.782 10 0 59629 60300.00000 0 6336081.274 23279170.804 -8263875.491 10 0 59629 61200.00000 0 6570165.816 24086475.790 -5200000.971 10 0 59629 62100.00000 0 6784797.267 24499057.001 -2035035.808 10 0 59629 63000.00000 0 6924832.821 24516846.216 1169491.577 10 0 59629 63900.00000 0 6937117.676 24152892.032 4351285.872 10 0 59629 64800.00000 0 6772974.056 23432735.946 7448500.784 10 0 59629 65700.00000 0 6390506.291 22393282.316 10400945.607 10 0 59629 66600.00000 0 5756623.542 21081210.351 13151258.301 10 0 59629 67500.00000 0 4848693.765 19550995.612 15646021.812 10 0 59629 68400.00000 0 3655758.234 17862624.791 17836801.728 10 0 59629 69300.00000 0 2179254.654 16079100.251 19681085.009 10 0 59629 70200.00000 0 433217.641 14263839.338 21143101.890 10 0 59629 71100.00000 0 -1556052.641 12478077.461 22194515.448 10 0 59629 72000.00000 0 -3750840.553 10778383.471 22814966.065 10 0 59629 72900.00000 0 -6103349.052 9214390.727 22992460.928 10 0 59629 73800.00000 0 -8557462.966 7826837.869 22723601.689 10 0 59629 74700.00000 0 -11050868.793 6646000.224 22013646.388 10 0 59629 75600.00000 0 -13517443.712 5690576.226 20876404.837 10 0 59629 76500.00000 0 -15889815.316 4967074.194 19333969.607 10 0 59629 77400.00000 0 -18101986.367 4469723.985 17416287.778 10 0 59629 78300.00000 0 -20091916.195 4180916.093 15160581.491 10 0 59629 79200.00000 0 -21803951.956 4072148.826 12610628.100 10 0 59629 80100.00000 0 -23191008.977 4105442.969 9815913.485 10 0 59629 81000.00000 0 -24216409.693 4235163.752 6830674.483 10 0 59629 81900.00000 0 -24855304.763 4410172.812 3712848.614 10 0 59629 82800.00000 0 -25095617.108 4576218.942 522951.344 10 0 59629 83700.00000 0 -24938469.580 4678466.210 -2677097.446 10 0 59629 84600.00000 0 -24398078.457 4664052.207 -5825174.985 10 0 59629 85500.00000 0 -23501117.325 4484567.750 -8860161.541 10 0 59630 0.00000 0 -22285578.242 4098352.704 -11723126.938 10 0 59630 900.00000 0 -20799177.310 3472509.911 -14358475.936 10 0 59630 1800.00000 0 -19097373.295 2584551.953 -16715026.203 10 0 59630 2700.00000 0 -17241080.157 1423609.593 -18747003.118 10 0 59630 3600.00000 0 -15294170.827 -8849.667 -20414928.232 10 0 59630 4500.00000 0 -13320876.007 -1698824.560 -21686385.869 10 0 59630 5400.00000 0 -11383186.630 -3620114.179 -22536652.953 10 0 59630 6300.00000 0 -9538368.222 -5735170.747 -22949180.089 10 0 59630 7200.00000 0 -7836690.609 -7996436.740 -22915914.666 10 0 59630 8100.00000 0 -6319467.268 -10348111.950 -22437459.823 10 0 59630 9000.00000 0 -5017485.634 -12728278.069 -21523066.052 10 0 59630 9900.00000 0 -3949893.373 -15071293.202 -20190455.368 10 0 59630 10800.00000 0 -3123586.514 -17310357.444 -18465481.070 10 0 59630 11700.00000 0 -2533124.356 -19380143.168 -16381629.163 10 0 59630 12600.00000 0 -2161174.018 -21219380.634 -13979370.672 10 0 59630 13500.00000 0 -1979465.202 -22773291.150 -11305376.933 10 0 59630 14400.00000 0 -1950214.184 -23995766.089 -8411612.763 10 0 59630 15300.00000 0 -2027956.217 -24851200.391 -5354325.044 10 0 59630 16200.00000 0 -2161708.093 -25315903.596 -2192946.476 10 0 59630 17100.00000 0 -2297368.537 -25379029.099 1011063.930 10 0 59630 18000.00000 0 -2380253.934 -25042982.571 4195420.441 10 0 59630 18900.00000 0 -2357661.057 -24323292.496 7298226.352 10 0 59630 19800.00000 0 -2181347.321 -23247948.532 10259181.586 10 0 59630 20700.00000 0 -1809822.675 -21856235.904 13020757.947 10 0 59630 21600.00000 0 -1210355.290 -20197115.265 15529318.735 10 0 59630 22500.00000 0 -360605.494 -18327216.515 17736160.743 10 0 59630 23400.00000 0 750181.737 -16308531.203 19598458.265 10 0 59630 24300.00000 0 2120476.674 -14205900.428 21080091.125 10 0 59630 25200.00000 0 3736287.266 -12084403.440 22152341.096 10 0 59630 26100.00000 0 5571512.240 -10006755.931 22794443.780 10 0 59630 27000.00000 0 7588810.839 -8030826.171 22993985.973 10 0 59630 27900.00000 0 9740953.620 -6207371.847 22747141.475 10 0 59630 28800.00000 0 11972598.717 -4578091.063 22058741.287 10 0 59630 29700.00000 0 14222420.334 -3174067.593 20942177.227 10 0 59630 30600.00000 0 16425501.639 -2014673.918 19419140.985 10 0 59630 31500.00000 0 18515893.110 -1106976.586 17519203.587 10 0 59630 32400.00000 0 20429230.484 -445667.402 15279243.198 10 0 59630 33300.00000 0 22105303.823 -13522.099 12742731.908 10 0 59630 34200.00000 0 23490470.941 217633.796 9958894.940 10 0 59630 35100.00000 0 24539814.802 285493.443 6981758.130 10 0 59630 36000.00000 0 25218954.903 235432.554 3869101.764 10 0 59630 36900.00000 0 25505436.904 118346.671 681340.919 10 0 59630 37800.00000 0 25389642.289 -11746.286 -2519646.083 10 0 59630 38700.00000 0 24875179.836 -100236.405 -5671718.342 10 0 59630 39600.00000 0 23978742.315 -94477.654 -8713678.627 10 0 59630 40500.00000 0 22729434.300 53739.367 -11586461.605 10 0 59630 41400.00000 0 21167599.025 385902.944 -14234280.829 10 0 59630 42300.00000 0 19343193.349 934781.207 -16605711.976 10 0 59630 43200.00000 0 17313778.642 1722793.749 -18654691.318 10 0 59630 44100.00000 0 15142211.441 2760823.508 -20341410.101 10 0 59630 45000.00000 0 12894130.173 4047519.990 -21633087.585 10 0 59630 45900.00000 0 10635342.594 5569124.329 -22504607.986 10 0 59630 46800.00000 0 8429222.519 7299824.867 -22939009.161 10 0 59630 47700.00000 0 6334224.009 9202629.644 -22927813.727 10 0 59630 48600.00000 0 4401616.068 11230720.679 -22471196.227 10 0 59630 49500.00000 0 2673531.618 13329234.708 -21577983.031 10 0 59630 50400.00000 0 1181411.531 15437397.079 -20265484.715 10 0 59630 51300.00000 0 -55092.154 17490920.649 -18559163.792 10 0 59630 52200.00000 0 -1028708.773 19424570.214 -16492143.734 10 0 59630 53100.00000 0 -1744613.348 21174785.676 -14104568.347 10 0 59630 54000.00000 0 -2219960.892 22682254.495 -11442823.456 10 0 59630 54900.00000 0 -2482911.188 23894325.688 -8558635.671 10 0 59630 55800.00000 0 -2571186.047 24767163.979 -5508065.654 10 0 59630 56700.00000 0 -2530220.895 25267553.449 -2350415.528 10 0 59630 57600.00000 0 -2410989.779 25374274.614 852928.054 10 0 59630 58500.00000 0 -2267596.804 25078996.741 4039692.075 10 0 59630 59400.00000 0 -2154736.952 24386647.724 7147932.666 10 0 59630 60300.00000 0 -2125134.802 23315245.883 10117243.643 10 0 59630 61200.00000 0 -2227070.490 21895200.845 12889933.882 10 0 59630 62100.00000 0 -2502098.469 20168113.069 15412150.171 10 0 59630 63000.00000 0 -2983056.268 18185122.604 17634923.475 10 0 59630 63900.00000 0 -3692447.984 16004876.624 19515118.200 10 0 59630 64800.00000 0 -4641271.292 13691200.942 21016266.294 10 0 59630 65700.00000 0 -5828337.886 11310572.880 22109270.461 10 0 59630 66600.00000 0 -7240116.454 8929500.842 22772963.422 10 0 59630 67500.00000 0 -8851105.344 6611919.432 22994513.082 10 0 59630 68400.00000 0 -10624719.951 4416707.925 22769666.421 10 0 59630 69300.00000 0 -12514658.350 2395434.536 22102827.903 10 0 59630 70200.00000 0 -14466688.826 590419.252 21006971.299 10 0 59630 71100.00000 0 -16420785.470 -966805.434 19503386.765 10 0 59630 72000.00000 0 -18313523.339 -2256573.054 17621268.038 10 0 59630 72900.00000 0 -20080633.930 -3271657.395 15397147.509 10 0 59630 73800.00000 0 -21659614.839 -4017319.819 12874189.704 10 0 59630 74700.00000 0 -22992284.968 -4510828.894 10101356.480 10 0 59630 75600.00000 0 -24027178.737 -4780473.695 7132459.646 10 0 59630 76500.00000 0 -24721679.232 -4864113.183 4025119.011 10 0 59630 77400.00000 0 -25043800.845 -4807323.572 839645.891 10 0 59630 78300.00000 0 -24973546.532 -4661222.513 -2362126.366 10 0 59630 79200.00000 0 -24503782.440 -4480062.558 -5518042.139 10 0 59630 80100.00000 0 -23640592.857 -4318696.107 -8566830.035 10 0 59630 81000.00000 0 -22403100.153 -4230019.501 -11449292.560 10 0 59630 81900.00000 0 -20822756.815 -4262504.849 -14109455.659 10 0 59630 82800.00000 0 -18942138.834 -4457924.410 -16495655.606 10 0 59630 83700.00000 0 -16813290.490 -4849364.263 -18561542.115 10 0 59630 84600.00000 0 -14495689.306 -5459611.788 -20266978.275 10 0 59630 85500.00000 0 -12053915.789 -6299985.722 -21578819.949 99